Showing default

CENTAURI-6, 59451

Orbit data source: Space-Track

CENTAURI-6, 59451 is a payload satellite owned by Fleet Space (AU) in LEO that was launched on Sun, 07 Apr 2024 UTC via an FALCON 9 launch vehicle from the Air Force Eastern Test Range (AFETR). Payload-class satellites include a variety of spacecraft equipped with specific instruments for various scientific and technological missions. These include communications satellites like Starlink; space stations such as the ISS; scientific satellites like the Hubble; Earth observation satellites from companies like Planet Labs, Umbra, and HawkEye 360; GPS; miniature CubeSats for education and research; and military/defense satellites.

Loading next visibility...
Identifier
59451, 2024-066K
Orbit
LEO
Last TLE update
21 hours ago
Origin
Manufacturer
Terran Orbital
Mission
Operational spacecraft
Bus & Motor
CUBESAT 12U, Unknown motor
Mass
~20 kg wet, ~20 kg dry
Launch date (UTC)
2024-04-07 (1 year ago)
Launch vehicle
FALCON 9
Launch site
Air Force Eastern Test Range (AFETR)
Object type
Payload
Rocket body
Debris
Shape & HBR
Unknown
Radar Cross Section
Medium (>0.1 m² and <1 m²)

Expand to show TLE details & history

TLE from 21 hours ago
0 CENTAURI-6
1 59451U 24066K   25128.52203093  .00005624  00000-0  45676-3 0  9992
2 59451  45.6053 199.3253 0001674  29.0838 331.0137 15.00587917 59239
Epoch: 2025-05-08T12:31Z
Definitive object data (Epoch: 2025-05-08T12:31:43.472Z)
Latitude
Longitude
144.80285°
Altitude
564.131 km
Speed
7.581 km/s
True Right ascension
13h 17m 18s
True Declination
0° 00' 00"
Sunlit
Object was in full shadow at TLE epoch
Visualization TLE readout
Latitude
37.14461°
Longitude
-172.20852°
Altitude
566.168 km
Speed
7.584 km/s
Apparent Right ascension
12h 02m 20s
Apparent Declination
2° 37' 49"
Sunlit
Object is in full shadow
Visualization observer readout
Local Sidereal Time
17:42:36
Azimuth
268.851° W
Elevation
5.473°
Doppler factor
1
Orbital elements
Apogee altitude
567.735 km
Perigee altitude
565.409 km
Semi-major axis
6,944.709 km
Eccentricity
0.0001674
Inclination
45.6053°
RAAN
199.3253°
Arg. of periapsis
29.0838°
True anomaly
331.0044°
Mean anomaly
331.0137°
Eccentric anomaly
331.00905°
Mean motion
3.75027 °/min
BSTAR
0.00045676
Orbital period
95.99 mins
Loading maneuver chart data...
Loading SW <> Apogee altitude chart data...
Loading historical data...
Loading historical data...
Loading historical data...
Loading historical data...
Loading historical data...
Loading historical data...
Loading historical data...

CENTAURI-6 Visibility forecast

Observer location: undefined°, undefined°

Span
Click to sort rows by Start time (UTC) header in descending order
Start Az.
Max El. time (UTC)
Max El. Az.
Max El.
End time (UTC)
End Az.
8 mins2025-05-09 09:34:15.211Z271.966° WNW2025-05-09 09:38:15.211Z344.936° N36.037°2025-05-09 09:42:15.211Z61.02° ENE
6 mins2025-05-09 11:17:15.211Z310.622° NW2025-05-09 11:19:15.211Z359.788° N32°2025-05-09 11:23:15.211Z75.284° E
7 mins2025-05-09 12:57:15.211Z296.59° NW2025-05-09 13:00:15.211Z352.958° N44.757°2025-05-09 13:04:15.211Z113.014° SE
4 mins2025-05-09 14:39:15.211Z246.996° WSW2025-05-09 14:40:15.211Z227.448° WSW20.435°2025-05-09 14:43:15.211Z175.074° S
4 mins2025-05-10 06:15:15.211Z159.342° S2025-05-10 06:16:15.211Z142.444° SSE16.225°2025-05-10 06:19:15.211Z96.808° ESE
6 mins2025-05-10 07:54:15.211Z237.465° WSW2025-05-10 07:56:15.211Z214.746° SW43.355°2025-05-10 08:00:15.211Z66.755° ENE
|